Location: Aiyekoto
(8.4333°N, 4.3667°E)
Time: 13:36:52
(UTC+00:00)

Cosmos 2123 Rocket - Pass Details

Date: 07 June 2020
Orbit: 961 x 992 km, 82.9° (Epoch: 07 July)

Event Time Altitude Azimuth Distance (km) Brightness Sun altitude
Rises 04:21:03 0° 358° (N) 3,666 7.3 -14.9°
Reaches altitude 10° 04:23:34 10° 359° (N) 2,714 6.7 -14.3°
Maximum altitude 04:29:47 83° 86° (E) 978 4.1 -12.9°
Drops below altitude 10° 04:35:58 10° 174° (S) 2,697 6.1 -11.6°
Sets 04:38:27 0° 175° (S) 3,641 6.8 -11.0°
